• In Germany
  • List of Countries
  • For 7 days
  • Water Temperature
  • Satellite Maps
  • Weather Map
  • Weather Widgets
  • user-avatar
    Login

    Hourly Weather Schleswig-Holstein

    Today, 21 February, Wednesday

    Time Temperature Precipitation Wind Pressure Humidity
    00:00 -2°C° 0 mm 3 mps 768 mmHg 84%
    01:00 -3°C° 0 mm 2 mps 768 mmHg 84%
    02:00 -3°C° 0 mm 2 mps 768 mmHg 84%
    03:00 -2°C° 0 mm 2 mps 768 mmHg 84%
    04:00 -2°C° 0 mm 2 mps 768 mmHg 84%
    05:00 -2°C° 0 mm 2 mps 768 mmHg 85%
    06:00 -3°C° 0 mm 2 mps 768 mmHg 85%
    07:00 -3°C° 0 mm 2 mps 768 mmHg 85%
    08:00 -2°C° 0 mm 2 mps 768 mmHg 80%
    09:00 -1°C° 0 mm 2 mps 768 mmHg 75%
    10:00 +2°C° 0 mm 2 mps 769 mmHg 71%
    11:00 +2°C° 0 mm 2 mps 769 mmHg 67%
    12:00 +3°C° 0 mm 2 mps 768 mmHg 63%
    13:00 +4°C° 0 mm 2 mps 768 mmHg 59%
    14:00 +3°C° 0 mm 2 mps 768 mmHg 61%
    15:00 +3°C° 0 mm 2 mps 768 mmHg 62%
    16:00 +3°C° 0 mm 2 mps 768 mmHg 63%
    17:00 +2°C° 0 mm 2 mps 768 mmHg 69%
    18:00 +2°C° 0 mm 1 mps 768 mmHg 75%
    19:00 0°C° 0 mm 1 mps 768 mmHg 81%
    20:00 0°C° 0 mm 1 mps 768 mmHg 82%
    21:00 0°C° 0 mm 1 mps 768 mmHg 84%
    22:00 0°C° 0 mm 1 mps 769 mmHg 85%
    23:00 0°C° 0 mm 1 mps 769 mmHg 85%

    Tomorrow, 22 February, Thursday

    Time Temperature Precipitation Wind Pressure Humidity
    00:00 0°C° 0 mm 1 mps 769 mmHg 84%
    01:00 0°C° 0 mm 1 mps 769 mmHg 84%
    02:00 0°C° 0 mm 1 mps 769 mmHg 84%
    03:00 0°C° 0 mm 1 mps 768 mmHg 84%
    04:00 0°C° 0 mm 1 mps 768 mmHg 83%
    05:00 0°C° 0 mm 1 mps 768 mmHg 83%
    06:00 0°C° 0 mm 1 mps 768 mmHg 83%
    07:00 0°C° 0 mm 1 mps 768 mmHg 83%
    08:00 +1°C° 0 mm 1 mps 768 mmHg 80%
    09:00 +2°C° 0 mm 1 mps 769 mmHg 77%
    10:00 +2°C° 0 mm 1 mps 769 mmHg 75%
    11:00 +3°C° 0 mm 1 mps 769 mmHg 73%
    12:00 +3°C° 0 mm 2 mps 769 mmHg 72%
    13:00 +3°C° 0 mm 2 mps 768 mmHg 70%
    14:00 +3°C° 0 mm 2 mps 768 mmHg 71%
    15:00 +2°C° 0 mm 3 mps 768 mmHg 71%
    16:00 +1°C° 0 mm 3 mps 768 mmHg 72%
    17:00 0°C° 0 mm 3 mps 768 mmHg 75%
    18:00 -1°C° 0 mm 3 mps 768 mmHg 78%
    19:00 -2°C° 0 mm 3 mps 768 mmHg 81%
    20:00 -4°C° 0 mm 3 mps 768 mmHg 81%
    21:00 -4°C° 0 mm 3 mps 768 mmHg 81%
    22:00 -4°C° 0 mm 3 mps 769 mmHg 81%
    23:00 -4°C° 0 mm 3 mps 769 mmHg 81%

    Day after tomorrow, 23 February, Friday

    Time Temperature Precipitation Wind Pressure Humidity
    00:00 -4°C° 0 mm 2 mps 769 mmHg 81%
    01:00 -4°C° 0 mm 2 mps 769 mmHg 81%
    02:00 -4°C° 0 mm 2 mps 769 mmHg 81%
    03:00 -4°C° 0 mm 2 mps 769 mmHg 81%
    04:00 -4°C° 0 mm 2 mps 769 mmHg 80%
    05:00 -4°C° 0 mm 2 mps 769 mmHg 80%
    06:00 -4°C° 0 mm 2 mps 769 mmHg 80%
    07:00 -4°C° 0 mm 2 mps 769 mmHg 80%
    08:00 -4°C° 0 mm 3 mps 769 mmHg 74%
    09:00 -2°C° 0 mm 3 mps 770 mmHg 69%
    10:00 -1°C° 0 mm 3 mps 770 mmHg 64%
    11:00 0°C° 0 mm 3 mps 770 mmHg 60%
    12:00 0°C° 0 mm 3 mps 770 mmHg 57%
    13:00 +1°C° 0 mm 3 mps 770 mmHg 54%
    14:00 +1°C° 0 mm 3 mps 770 mmHg 55%
    15:00 0°C° 0 mm 4 mps 770 mmHg 57%
    16:00 0°C° 0 mm 4 mps 770 mmHg 58%
    17:00 -1°C° 0 mm 4 mps 770 mmHg 64%
    18:00 -2°C° 0 mm 4 mps 770 mmHg 71%
    19:00 -4°C° 0 mm 4 mps 770 mmHg 77%
    20:00 -4°C° 0 mm 4 mps 770 mmHg 77%
    21:00 -4°C° 0 mm 4 mps 771 mmHg 78%
    22:00 -4°C° 0 mm 4 mps 771 mmHg 79%
    23:00 -4°C° 0 mm 4 mps 771 mmHg 80%

    24 February, Saturday

    Time Temperature Precipitation Wind Pressure Humidity
    00:00 -4°C° 0 mm 4 mps 771 mmHg 80%
    01:00 -4°C° 0 mm 4 mps 771 mmHg 81%
    02:00 -4°C° 0 mm 4 mps 771 mmHg 81%
    03:00 -4°C° 0 mm 4 mps 771 mmHg 81%
    04:00 -3°C° 0 mm 4 mps 771 mmHg 81%
    05:00 -3°C° 0 mm 4 mps 772 mmHg 80%
    06:00 -4°C° 0 mm 5 mps 772 mmHg 79%
    07:00 -4°C° 0 mm 5 mps 772 mmHg 78%
    08:00 -3°C° 0 mm 6 mps 772 mmHg 73%
    09:00 -3°C° 0 mm 7 mps 773 mmHg 69%
    10:00 -2°C° 0 mm 7 mps 773 mmHg 64%
    11:00 -2°C° 0 mm 8 mps 773 mmHg 61%
    12:00 -2°C° 0 mm 8 mps 773 mmHg 58%
    13:00 -1°C° 0 mm 8 mps 773 mmHg 55%
    14:00 -2°C° 0 mm 8 mps 773 mmHg 54%
    15:00 -2°C° 0 mm 8 mps 773 mmHg 54%
    16:00 -2°C° 0 mm 8 mps 773 mmHg 54%
    17:00 -4°C° 0 mm 8 mps 773 mmHg 57%
    18:00 -4°C° 0 mm 7 mps 774 mmHg 61%
    19:00 -6°C° 0 mm 7 mps 774 mmHg 64%
    20:00 -6°C° 0 mm 7 mps 774 mmHg 65%
    21:00 -7°C° 0 mm 7 mps 775 mmHg 65%
    22:00 -7°C° 0 mm 7 mps 775 mmHg 65%
    23:00 -6°C° 0 mm 6 mps 775 mmHg 64%

    25 February, Sunday

    Time Temperature Precipitation Wind Pressure Humidity
    00:00 -6°C° 0 mm 6 mps 775 mmHg 63%
    01:00 -6°C° 0 mm 6 mps 775 mmHg 61%
    02:00 -6°C° 0 mm 6 mps 775 mmHg 61%
    03:00 -6°C° 0 mm 5 mps 775 mmHg 61%
    04:00 -6°C° 0 mm 5 mps 775 mmHg 61%
    05:00 -6°C° 0 mm 5 mps 775 mmHg 61%
    06:00 -6°C° 0 mm 5 mps 776 mmHg 61%
    07:00 -6°C° 0 mm 5 mps 776 mmHg 61%
    08:00 -6°C° 0 mm 5 mps 776 mmHg 59%
    09:00 -5°C° 0 mm 5 mps 776 mmHg 57%
    10:00 -5°C° 0 mm 5 mps 776 mmHg 55%
    11:00 -4°C° 0 mm 5 mps 776 mmHg 53%
    12:00 -4°C° 0 mm 5 mps 776 mmHg 51%
    13:00 -4°C° 0 mm 5 mps 776 mmHg 50%
    14:00 -4°C° 0 mm 5 mps 775 mmHg 50%
    15:00 -4°C° 0 mm 5 mps 775 mmHg 50%
    16:00 -4°C° 0 mm 5 mps 775 mmHg 50%
    17:00 -4°C° 0 mm 4 mps 775 mmHg 55%
    18:00 -4°C° 0 mm 4 mps 775 mmHg 59%
    19:00 -5°C° 0 mm 4 mps 775 mmHg 63%
    20:00 -5°C° 0 mm 4 mps 775 mmHg 64%
    21:00 -5°C° 0 mm 3 mps 775 mmHg 65%
    22:00 -5°C° 0 mm 3 mps 775 mmHg 66%
    23:00 -5°C° 0 mm 3 mps 775 mmHg 67%

    26 February, Monday

    Time Temperature Precipitation Wind Pressure Humidity
    00:00 -5°C° 0 mm 3 mps 775 mmHg 67%
    01:00 -5°C° 0 mm 3 mps 775 mmHg 68%
    02:00 -5°C° 0.1 mm 3 mps 775 mmHg 68%
    03:00 -6°C° 0.1 mm 3 mps 774 mmHg 68%
    04:00 -6°C° 0.1 mm 3 mps 774 mmHg 68%
    05:00 -6°C° 0.1 mm 3 mps 774 mmHg 68%
    06:00 -7°C° 0.1 mm 4 mps 774 mmHg 69%
    07:00 -7°C° 0.1 mm 4 mps 774 mmHg 69%
    08:00 -7°C° 0 mm 4 mps 774 mmHg 65%
    09:00 -6°C° 0 mm 5 mps 774 mmHg 62%
    10:00 -6°C° 0 mm 5 mps 774 mmHg 59%
    11:00 -5°C° 0 mm 5 mps 773 mmHg 56%
    12:00 -5°C° 0 mm 5 mps 773 mmHg 54%
    13:00 -5°C° 0 mm 5 mps 773 mmHg 51%
    14:00 -5°C° 0 mm 5 mps 773 mmHg 51%
    15:00 -5°C° 0 mm 5 mps 772 mmHg 51%
    16:00 -6°C° 0 mm 5 mps 772 mmHg 51%
    17:00 -5°C° 0 mm 4 mps 772 mmHg 55%
    18:00 -7°C° 0 mm 4 mps 771 mmHg 59%
    19:00 -7°C° 0 mm 4 mps 771 mmHg 62%
    20:00 -7°C° 0 mm 4 mps 771 mmHg 63%
    21:00 -7°C° 0 mm 4 mps 771 mmHg 64%
    22:00 -6°C° 0 mm 3 mps 771 mmHg 66%
    23:00 -6°C° 0 mm 3 mps 770 mmHg 67%
    Show more